FW0380 Weather Reports


time (UTC)temp
C
wind
direction
speed
KPH
gust
KPH
rain 1hr
cm
rain 24hr
cm
rain mn
cm
humidity
%
barometer
mb
20260506221631 20 236 3.2 11.3 0.00 0.28 0.28 78 1009.7
20260506221129 20 251 3.2 12.9 0.00 0.28 0.28 78 1009.6
20260506220631 20 248 4.8 12.9 0.00 0.28 0.28 78 1009.6
20260506220128 20 215 4.8 12.9 0.00 0.28 0.28 77 1009.6
20260506215907 20 235 3.2 11.3 0.00 0.28 0.28 77 1009.6
20260506215130 20 251 3.2 11.3 0.00 0.28 0.28 78 1009.6
20260506214630 20 281 3.2 9.7 0.00 0.28 0.28 79 1009.7
20260506214129 20 191 4.8 14.5 0.00 0.28 0.28 79 1009.6
20260506213629 20 218 4.8 14.5 0.00 0.28 0.28 79 1009.6
20260506213128 20 258 4.8 14.5 0.00 0.28 0.28 78 1009.5
20260506212629 20 150 4.8 14.5 0.00 0.28 0.28 77 1009.4
20260506212405 20 223 6.4 16.1 0.00 0.28 0.28 77 1009.5
20260506211630 20 216 6.4 17.7 0.00 0.28 0.28 77 1009.5
20260506211129 20 227 4.8 17.7 0.00 0.28 0.28 78 1009.5
20260506210629 20 242 4.8 14.5 0.00 0.28 0.28 80 1009.4
20260506210129 19 218 4.8 14.5 0.00 0.28 0.28 81 1009.4
20260506205630 19 225 6.4 14.5 0.00 0.28 0.28 80 1009.4
20260506205129 19 228 6.4 14.5 0.00 0.28 0.28 80 1009.3
20260506204630 19 224 4.8 14.5 0.00 0.28 0.28 81 1009.4
20260506204404 19 251 3.2 11.3 0.00 0.28 0.28 81 1009.4
20260506203629 18 219 4.8 14.5 0.00 0.28 0.28 82 1009.4
20260506203131 18 219 4.8 14.5 0.00 0.28 0.28 82 1009.3
20260506202630 18 206 4.8 12.9 0.00 0.28 0.28 82 1009.4
20260506202129 18 234 6.4 14.5 0.00 0.28 0.28 83 1009.2
20260506201630 18 221 6.4 16.1 0.00 0.28 0.28 82 1009.2
20260506201128 18 224 6.4 16.1 0.00 0.28 0.28 83 1009.2
20260506200629 18 236 6.4 16.1 0.00 0.28 0.28 84 1009.2
20260506200128 18 217 8.0 17.7 0.00 0.28 0.28 84 1009.2
20260506195629 17 238 6.4 17.7 0.00 0.28 0.28 85 1009.3
20260506195129 17 252 6.4 16.1 0.00 0.28 0.28 86 1009.3
20260506194631 17 236 4.8 16.1 0.00 0.28 0.28 86 1009.4
20260506194128 17 228 4.8 12.9 0.00 0.28 0.28 87 1009.5
20260506193626 17 223 6.4 14.5 0.00 0.28 0.28 86 1009.6
20260506193127 17 231 4.8 14.5 0.00 0.28 0.28 87 1009.7
20260506192626 17 238 4.8 16.1 0.00 0.28 0.28 86 1009.7
20260506192139 17 248 6.4 14.5 0.00 0.28 0.28 87 1009.7
20260506192132 17 217 6.4 16.1 0.00 0.28 0.28 86 1009.7
20260506191128 17 252 6.4 16.1 0.00 0.28 0.28 87 1009.9
20260506190627 17 238 6.4 16.1 0.00 0.28 0.28 87 1009.8
20260506190126 17 221 4.8 12.9 0.00 0.28 0.28 87 1009.9
20260506185625 17 214 4.8 12.9 0.00 0.28 0.28 87 1010.0
20260506185126 16 243 6.4 17.7 0.00 0.28 0.28 87 1010.0
20260506184626 16 225 6.4 17.7 0.00 0.28 0.28 87 1010.0
20260506184126 16 243 6.4 19.3 0.00 0.28 0.28 88 1009.9
20260506183627 16 211 4.8 19.3 0.00 0.28 0.28 88 1010.0
20260506183405 16 219 4.8 16.1 0.00 0.28 0.28 89 1010.0
20260506182626 16 223 4.8 17.7 0.00 0.28 0.28 89 1010.0
20260506182402 16 215 4.8 17.7 0.00 0.28 0.28 89 1010.2
20260506181619 16 113 6.4 19.3 0.00 0.28 0.28 89 1010.2
20260506181115 16 219 8.0 24.1 0.00 0.28 0.28 89 1010.2
20260506180847 16 273 6.4 24.1 0.00 0.28 0.28 89 1010.3
20260506180114 16 238 4.8 12.9 0.00 0.28 0.28 90 1010.3
20260506175851 16 180 4.8 14.5 0.00 0.28 0.28 90 1010.3
20260506175112 16 298 4.8 24.1 0.00 0.28 0.28 90 1010.3
20260506174848 16 124 4.8 24.1 0.00 0.28 0.28 90 1010.4
20260506174133 16 184 8.0 25.7 0.00 0.28 0.28 90 1010.5
20260506174125 16 246 6.4 25.7 0.00 0.28 0.28 90 1010.3
20260506173115 16 297 8.0 25.7 0.00 0.28 0.28 90 1010.4
20260506172612 16 238 8.0 22.5 0.00 0.28 0.28 90 1010.5
20260506172345 16 219 8.0 20.9 0.00 0.28 0.28 90 1010.4
20260506171611 16 244 6.4 25.7 0.00 0.28 0.28 90 1010.6
20260506171106 16 235 6.4 25.7 0.03 0.28 0.28 90 1010.5
20260506170606 16 180 6.4 20.9 0.05 0.28 0.28 90 1010.5
20260506170107 16 282 6.4 19.3 0.08 0.28 0.28 90 1010.6
20260506165606 16 223 6.4 19.3 0.10 0.28 0.28 90 1010.6
20260506165106 16 130 6.4 19.3 0.13 0.28 0.28 90 1010.6
20260506164606 16 145 4.8 19.3 0.13 0.28 0.28 90 1010.7
20260506164107 16 158 4.8 24.1 0.13 0.28 0.28 90 1010.7
20260506163608 16 180 3.2 24.1 0.18 0.28 0.28 90 1010.7
20260506163106 16 160 4.8 24.1 0.18 0.28 0.28 90 1010.8
20260506162607 16 283 4.8 24.1 0.20 0.28 0.28 90 1011.0
20260506162107 16 214 4.8 14.5 0.20 0.28 0.28 90 1011.0
20260506161604 16 239 4.8 17.7 0.20 0.28 0.28 90 1010.8
20260506161103 16 101 3.2 17.7 0.18 0.25 0.25 89 1010.9
20260506160604 16 169 3.2 17.7 0.18 0.23 0.20 89 1011.1
20260506160104 16 170 4.8 17.7 0.18 0.20 0.18 89 1011.3
20260506155604 16 178 4.8 17.7 0.15 0.18 0.18 88 1011.5
20260506155103 16 282 4.8 8.0 0.15 0.15 0.15 88 1011.7
20260506154605 16 215 4.8 17.7 0.15 0.15 0.15 87 1011.9
20260506154103 16 200 6.4 22.5 0.15 0.15 0.13 87 1011.9
20260506153839 16 243 4.8 22.5 0.10 0.10 0.10 86 1011.8
20260506153335 16 227 3.2 12.9 0.10 0.10 0.10 86 1011.9
20260506152603 16 169 4.8 14.5 0.08 0.08 0.08 85 1011.8
20260506152102 16 204 4.8 14.5 0.08 0.08 0.08 85 1011.8
20260506151601 16 245 4.8 17.7 0.08 0.08 0.08 84 1011.8
20260506151101 16 138 4.8 17.7 0.08 0.08 0.08 83 1011.8
20260506150600 17 219 4.8 14.5 0.05 0.05 0.05 82 1011.6
20260506150335 17 220 6.4 16.1 0.03 0.03 0.03 81 1011.6
20260506145602 17 251 6.4 24.1 0.03 0.03 0.03 79 1011.7
20260506145102 17 261 6.4 24.1 0.00 0.00 0.00 78 1011.7
20260506144900 17 236 6.4 16.1 0.00 0.00 0.00 75 1011.6
20260506144626 18 182 6.4 16.1 0.00 0.00 0.00 75 1011.8
20260506144616 17 210 6.4 19.3 0.00 0.00 0.00 77 1011.6
20260506143101 18 214 6.4 25.7 0.00 0.00 0.00 75 1011.8
20260506142602 18 194 8.0 25.7 0.00 0.00 0.00 75 1011.7
20260506142101 18 232 6.4 27.4 0.00 0.00 0.00 74 1011.6
20260506141602 18 186 6.4 27.4 0.00 0.00 0.00 74 1011.9
20260506141101 18 242 9.7 19.3 0.00 0.00 0.00 72 1011.9
20260506140602 18 242 8.0 30.6 0.00 0.00 0.00 72 1011.8
20260506135837 18 213 8.0 20.9 0.00 0.00 0.00 71 1011.6
20260506135336 18 257 6.4 20.9 0.00 0.00 0.00 71 1011.6
20260506134602 18 271 6.4 17.7 0.00 0.00 0.00 71 1011.5
20260506134100 18 233 6.4 17.7 0.00 0.00 0.00 73 1011.6
20260506133836 18 174 8.0 17.7 0.00 0.00 0.00 73 1011.5
20260506133102 18 236 8.0 17.7 0.00 0.00 0.00 73 1011.5
20260506132839 18 205 8.0 22.5 0.00 0.00 0.00 73 1011.5
20260506132101 18 230 6.4 22.5 0.00 0.00 0.00 74 1011.6
20260506131840 18 171 4.8 22.5 0.00 0.00 0.00 74 1011.6
20260506131101 18 306 4.8 22.5 0.00 0.00 0.00 74 1011.7
20260506130601 17 251 6.4 24.1 0.00 0.00 0.00 74 1011.7
20260506125835 17 187 8.0 24.1 0.00 0.00 0.00 74 1011.7
20260506125101 17 240 9.7 24.1 0.00 0.00 0.00 75 1011.8
20260506124601 18 238 8.0 22.5 0.00 0.00 0.00 74 1011.9
20260506124101 18 234 6.4 20.9 0.00 0.00 0.00 75 1011.9
20260506123601 18 350 6.4 19.3 0.00 0.00 0.00 75 1011.9
20260506123101 18 236 8.0 19.3 0.00 0.00 0.00 75 1011.7
20260506122602 18 144 8.0 19.3 0.00 0.00 0.00 75 1011.8
20260506122056 18 215 8.0 19.3 0.00 0.00 0.00 75 1011.7
20260506121550 17 217 8.0 24.1 0.00 0.00 0.00 75 1011.7
20260506121044 17 51 8.0 24.1 0.00 0.00 0.00 75 1011.8
20260506120537 17 209 6.4 22.5 0.00 0.00 0.00 75 1011.7
20260506120037 17 233 6.4 19.3 0.00 0.00 0.00 75 1011.6
20260506115536 17 221 6.4 20.9 0.00 0.00 0.00 76 1011.6
20260506115047 17 269 4.8 19.3 0.00 0.00 0.00 77 1011.6
20260506115040 17 209 4.8 20.9 0.00 0.00 0.00 76 1011.6
20260506114033 17 195 6.4 19.3 0.00 0.00 0.00 77 1011.6
20260506113529 17 174 8.0 24.1 0.00 0.00 0.00 77 1011.5
20260506113029 17 179 4.8 19.3 0.00 0.00 0.00 77 1011.4
20260506112529 17 132 6.4 24.1 0.00 0.00 0.00 78 1011.4
20260506112308 17 250 8.0 24.1 0.00 0.00 0.00 77 1011.5
20260506111529 17 196 6.4 19.3 0.00 0.00 0.00 78 1011.5
20260506111029 17 263 6.4 20.9 0.00 0.00 0.00 78 1011.5
20260506110805 17 121 6.4 20.9 0.00 0.00 0.00 78 1011.5
20260506110032 17 129 4.8 16.1 0.00 0.00 0.00 78 1011.5
20260506105530 17 171 6.4 19.3 0.00 0.00 0.00 79 1011.6
20260506105032 17 227 6.4 19.3 0.00 0.00 0.00 79 1011.5
20260506104531 17 151 6.4 20.9 0.00 0.00 0.00 79 1011.5
20260506104030 16 173 6.4 20.9 0.00 0.00 0.00 79 1011.4
20260506103530 16 222 4.8 17.7 0.00 0.00 0.00 79 1011.6
20260506103028 16 196 4.8 16.1 0.00 0.00 0.00 79 1011.4
20260506102530 16 148 4.8 24.1 0.00 0.00 0.00 79 1011.4
20260506102029 16 36 4.8 24.1 0.00 0.00 0.00 79 1011.5
20260506101810 16 134 6.4 29.0 0.00 0.00 0.00 79 1011.4
20260506101030 16 236 6.4 29.0 0.00 0.00 0.00 79 1011.5
20260506100808 16 246 3.2 25.7 0.00 0.00 0.00 79 1011.5
20260506100028 16 250 4.8 27.4 0.00 0.00 0.00 79 1011.4
20260506095529 16 142 6.4 27.4 0.00 0.00 0.00 79 1011.4
20260506095305 17 229 6.4 17.7 0.00 0.00 0.00 79 1011.4
20260506094530 17 194 6.4 24.1 0.00 0.00 0.00 79 1011.5
20260506094030 17 147 4.8 24.1 0.00 0.00 0.00 78 1011.5
20260506093529 17 136 4.8 16.1 0.00 0.00 0.00 78 1011.6
20260506093306 17 166 4.8 16.1 0.00 0.00 0.00 78 1011.6
20260506092531 17 173 4.8 16.1 0.00 0.00 0.00 78 1011.6
20260506092030 17 211 3.2 16.1 0.00 0.00 0.00 78 1011.6
20260506091535 17 129 4.8 17.7 0.00 0.00 0.00 78 1011.4
20260506091528 17 156 3.2 16.1 0.00 0.00 0.00 78 1011.5
20260506090749 17 261 4.8 17.7 0.00 0.00 0.00 77 1011.4
20260506090014 17 178 4.8 12.9 0.00 0.00 0.00 77 1011.5
20260506085759 17 286 3.2 16.1 0.00 0.00 0.00 77 1011.5
20260506085518 17 265 3.2 14.5 0.00 0.00 0.00 77 1011.5
20260506084510 17 144 3.2 16.1 0.00 0.00 0.00 77 1011.5
20260506084008 17 143 4.8 16.1 0.00 0.00 0.00 77 1011.5
20260506083507 17 126 4.8 14.5 0.00 0.00 0.00 77 1011.4
20260506083008 17 158 4.8 14.5 0.00 0.00 0.00 77 1011.4
20260506082507 17 32 3.2 12.9 0.00 0.00 0.00 77 1011.5
20260506082242 17 148 3.2 14.5 0.00 0.00 0.00 77 1011.6
20260506081516 17 111 3.2 12.9 0.00 0.00 0.00 77 1011.6
20260506081508 17 169 3.2 14.5 0.00 0.00 0.00 77 1011.6
20260506080502 17 148 3.2 14.5 0.00 0.00 0.00 77 1011.6
20260506073502 17 148 3.2 14.5 0.00 0.03 0.00 76 1011.8
20260506073003 17 159 3.2 17.7 0.00 0.10 0.00 76 1011.8
20260506072502 18 177 3.2 17.7 0.00 0.10 0.00 76 1011.8
20260506072001 18 193 3.2 17.7 0.00 0.10 0.00 75 1011.8
20260506071502 18 146 4.8 20.9 0.00 0.10 0.00 75 1011.8
20260506071238 18 199 3.2 20.9 0.00 0.10 0.00 75 1011.8
20260506070501 18 239 3.2 24.1 0.00 0.10 0.00 75 1011.8
20260506062501 18 102 4.8 17.7 0.00 0.10 0.00 74 1012.1
20260506062000 18 225 4.8 17.7 0.00 0.10 0.00 74 1012.2
20260506061502 18 162 4.8 17.7 0.00 0.10 0.00 74 1012.2
20260506061001 18 198 4.8 12.9 0.00 0.10 0.00 74 1012.1
20260506060455 18 254 6.4 20.9 0.00 0.10 0.00 74 1012.1
20260506050937 17 145 1.6 9.7 0.00 0.10 0.00 75 1012.6
20260506050435 17 171 1.6 9.7 0.00 0.10 0.00 75 1012.6
20260506044929 17 151 1.6 11.3 0.00 0.10 0.00 74 1012.7
20260506044429 17 91 1.6 8.0 0.00 0.10 0.00 74 1012.6
20260506044201 17 146 1.6 11.3 0.00 0.10 0.00 74 1012.7
20260506043706 17 155 1.6 11.3 0.00 0.10 0.00 73 1012.8
20260506042931 17 247 1.6 8.0 0.00 0.10 0.00 72 1012.8
20260506042429 17 141 1.6 6.4 0.00 0.10 0.00 73 1012.7
20260506041928 17 142 1.6 9.7 0.00 0.10 0.00 72 1012.7
20260506041422 17 123 0.0 9.7 0.00 0.10 0.00 71 1012.8
20260506040922 17 165 1.6 11.3 0.00 0.10 0.00 72 1012.8
20260506040421 17 246 1.6 11.3 0.00 0.10 0.00 71 1012.8
20260506035920 18 240 1.6 8.0 0.00 0.10 0.10 70 1012.7
20260506035419 18 126 1.6 8.0 0.00 0.10 0.10 70 1012.6
20260506035151 18 122 1.6 9.7 0.00 0.10 0.10 69 1012.6
20260506034413 18 172 1.6 9.7 0.00 0.10 0.10 69 1012.6
20260506033912 18 140 1.6 9.7 0.00 0.10 0.10 69 1012.6
20260506033412 18 140 1.6 9.7 0.00 0.10 0.10 68 1012.5
20260506032913 18 183 1.6 8.0 0.00 0.10 0.10 68 1012.4
20260506032409 18 186 1.6 8.0 0.00 0.10 0.10 67 1012.3
20260506031909 18 144 3.2 8.0 0.00 0.10 0.10 67 1012.4
20260506031640 19 118 1.6 9.7 0.00 0.10 0.10 66 1012.4
20260506030907 19 180 1.6 9.7 0.00 0.10 0.10 65 1012.4
20260506030432 19 142 1.6 11.3 0.00 0.10 0.10 64 1012.7
20260506030428 20 147 3.2 11.3 0.00 0.10 0.10 63 1012.6
20260506030419 19 136 1.6 11.3 0.00 0.10 0.10 64 1012.5
20260506024905 20 146 3.2 11.3 0.00 0.10 0.10 62 1012.6
20260506024404 20 95 3.2 9.7 0.00 0.10 0.10 62 1012.6
20260506024144 20 199 3.2 11.3 0.00 0.10 0.10 61 1012.8
20260506023406 20 225 1.6 11.3 0.00 0.10 0.10 60 1012.7
20260506022904 20 158 1.6 6.4 0.00 0.10 0.10 59 1012.7
20260506022401 20 229 3.2 12.9 0.00 0.10 0.10 58 1012.7
20260506021902 21 201 3.2 12.9 0.00 0.10 0.10 57 1012.6
20260506021403 21 145 1.6 12.9 0.00 0.10 0.10 56 1012.6
20260506020901 21 144 3.2 16.1 0.00 0.10 0.10 55 1012.6
20260506020402 21 162 4.8 16.1 0.00 0.10 0.10 54 1012.5
20260506015900 21 224 4.8 17.7 0.00 0.10 0.10 54 1012.5
20260506015401 21 242 4.8 17.7 0.00 0.10 0.10 53 1012.3
20260506014901 21 254 3.2 16.1 0.00 0.10 0.10 53 1012.3
20260506014401 21 114 3.2 20.9 0.00 0.10 0.10 52 1012.3
20260506014138 21 258 4.8 20.9 0.00 0.10 0.10 52 1012.2
20260506013401 21 170 6.4 24.1 0.00 0.10 0.10 51 1012.1
20260506012901 21 166 6.4 24.1 0.00 0.10 0.10 51 1012.1
20260506012638 21 188 4.8 27.4 0.00 0.10 0.10 51 1012.0
20260506012135 22 227 3.2 27.4 0.00 0.10 0.10 51 1012.0
20260506011401 22 226 4.8 27.4 0.00 0.10 0.10 50 1011.9
20260506010901 22 159 6.4 27.4 0.00 0.10 0.10 50 1011.9
20260506010402 22 157 4.8 24.1 0.00 0.10 0.10 49 1011.8
20260506005901 22 342 3.2 20.9 0.00 0.10 0.10 49 1011.7
20260506005401 22 180 4.8 20.9 0.00 0.10 0.10 48 1011.7
20260506004902 22 321 4.8 19.3 0.00 0.10 0.10 47 1011.7
20260506004402 22 192 3.2 14.5 0.00 0.10 0.10 48 1011.7
20260506003901 22 169 4.8 14.5 0.00 0.10 0.10 47 1011.6
20260506003640 22 246 4.8 16.1 0.00 0.10 0.10 47 1011.5
20260506003140 22 166 4.8 16.1 0.00 0.10 0.10 46 1011.7
20260506002636 22 201 6.4 22.5 0.00 0.10 0.10 46 1011.6
20260506001903 23 299 6.4 22.5 0.00 0.10 0.10 46 1011.5
20260506001640 23 219 6.4 22.5 0.00 0.10 0.10 46 1011.4
20260506000901 23 234 6.4 22.5 0.00 0.10 0.10 45 1011.3
20260506000401 23 252 6.4 17.7 0.00 0.10 0.10 45 1011.3
20260505235902 23 272 6.4 20.9 0.00 0.10 0.10 44 1011.1
20260505235403 23 229 8.0 22.5 0.00 0.10 0.10 44 1011.1
20260505234902 23 149 6.4 22.5 0.00 0.10 0.10 43 1011.1
20260505234402 23 263 8.0 22.5 0.00 0.10 0.10 43 1011.1
20260505233902 23 200 9.7 38.6 0.00 0.10 0.10 43 1011.1
20260505233402 24 225 9.7 38.6 0.00 0.10 0.10 43 1011.1
20260505232901 24 236 8.0 22.5 0.00 0.10 0.10 43 1011.1
20260505232402 24 272 6.4 22.5 0.00 0.10 0.10 43 1011.1
20260505231901 24 175 6.4 22.5 0.00 0.10 0.10 43 1011.1
20260505231401 25 332 6.4 20.9 0.00 0.10 0.10 42 1010.8
20260505230902 25 193 6.4 20.9 0.00 0.10 0.10 41 1010.8
20260505230401 25 290 4.8 20.9 0.00 0.10 0.10 40 1010.8
20260505225901 25 169 4.8 20.9 0.00 0.10 0.10 38 1010.9
20260505225401 25 220 6.4 20.9 0.00 0.10 0.10 39 1010.8
20260505224901 25 229 8.0 29.0 0.00 0.10 0.10 39 1010.8
20260505224401 25 190 8.0 29.0 0.00 0.10 0.10 39 1010.7
20260505223902 25 266 9.7 32.2 0.00 0.10 0.10 39 1010.7
20260505223402 25 223 9.7 32.2 0.00 0.10 0.10 39 1010.8
20260505222902 25 193 8.0 24.1 0.00 0.10 0.10 41 1010.8
20260505222401 25 232 8.0 22.5 0.00 0.10 0.10 41 1011.0